IRIDIUM 86 [-]

Last updated on Fri Oct 05 2018 06:13:46 GMT+0000 (Coordinated Universal Time)

1 25528U 98066B 18277.88543620 .08749369 -98445-6 50439-3 0 9999 2 25528 86.3855 148.1964 0061105 27.3299 333.1167 16.32310333 47849

Satellite not in orbit